Flag for Germany Weather past 2 weeks in Landsberg am Lech, Bavaria, Germany

Now
34 °F

Overcast.


Feels Like: 27 °F
Forecast: 25 / 35 °F
Wind: 8 mph from Southeast

Location: Landsberg

Current Time: Jan 30, 2015 at 12:05:03 AM

Latest Report: Jan 29, 2015 at 11:20 PM


Visibility: N/A

Pressure: 28.85 "Hg

Humidity: 87%

Dew point: 30 °F

Location of Landsberg am LechLocation

Historic Weather in Landsberg am Lech — Graph

°F

Landsberg am Lech temperature yesterday

Maximum temperature yesterday: 36 °F (at 1:20 AM)
Minimum temperature yesterday: 30 °F (at 5:20 AM)
Average temperature yesterday: 33 °F

Past Weeks' High & Low Weather Summary

 TemperatureHumidityPressure
High46 °F (Jan 15, 2:20 PM)100% (Jan 15, 1:20 AM)30.33 "Hg (Jan 15, 1:20 AM)
Low23 °F (Jan 20, 12:20 AM)50% (Jan 15, 2:20 PM)28.91 "Hg (Jan 29, 10:20 PM)
Average31 °F89%29.93 "Hg
* Reported Jan 14 10:20 PM — Jan 29 10:20 PM, Landsberg am Lech, Weather by CustomWeather, © 2014

Note: Actual official high and low records may vary slightly from our data, if they occured in-between our weather recording intervals... More about our weather records

Advertising

Landsberg am Lech weather history for previous 24 hours

 ConditionsComfort  
Time TempWeatherWind HumidityBarometerVisibility
10:20 PM
Jan 29
34 °FOvercast.5 mph87%28.91 "HgN/A
9:20 PM34 °FMostly cloudy.2 mph81%28.97 "HgN/A
8:20 PM34 °FLight snow. Mostly cloudy.7 mph81%29.00 "HgN/A
7:20 PM34 °FMostly cloudy.9 mph87%29.06 "HgN/A
6:20 PM34 °FMostly cloudy.9 mph87%29.12 "HgN/A
5:20 PM36 °FLight snow. Mostly cloudy.12 mph81%29.18 "Hg4 mi
4:20 PM34 °FMostly cloudy.12 mph87%29.21 "HgN/A
3:20 PM36 °FPartly sunny.13 mph81%29.27 "HgN/A
2:20 PM36 °FBroken clouds.15 mph75%29.30 "HgN/A
1:20 PM36 °FBroken clouds.15 mph75%29.36 "HgN/A
12:20 PM34 °FBroken clouds.16 mph75%29.42 "HgN/A
11:20 AM34 °FPartly sunny.17 mph75%29.45 "HgN/A
10:20 AM32 °FScattered clouds.13 mph80%29.47 "HgN/A
9:20 AM30 °FScattered clouds.9 mph86%29.50 "HgN/A
8:20 AM30 °FPartly sunny.12 mph86%29.53 "HgN/A
7:20 AM30 °FPartly cloudy.12 mph93%29.53 "HgN/A
6:20 AM30 °FLight snow. Mostly cloudy.12 mph93%29.53 "Hg3 mi
6:03 AM30 °FLight snow. Mostly cloudy.13 mph93%29.53 "Hg3 mi
5:20 AM30 °FSnow. Mostly cloudy.15 mph100%29.53 "Hg2 mi
4:20 AM32 °FSnow. Mostly cloudy.18 mph93%29.53 "Hg2 mi
3:20 AM34 °FSnow. Mostly cloudy.20 mph93%29.53 "Hg1 mi
2:20 AM34 °FLight rain. Mostly cloudy.22 mph93%29.50 "Hg4 mi
1:20 AM36 °FRain. Mostly cloudy.24 mph87%29.50 "Hg4 mi
12:20 AM34 °FLight snow. Mostly cloudy.20 mph93%29.53 "Hg4 mi
Weather by CustomWeather, © 2014

See weather overviewHow to use our weather pages